QPF
0.00 0.02 0.00 0.00 0.00 0.00 0.00 0.00 0.00 0.00 0.00 0.00 0.01 0.00 0.00 0.00 0.00 0.00 0.00 0.00 0.00 0.00 0.00 0.00 0.02 0.06 0.16 0.08 0.00 0.00 0.00 0.00 0.00 0.00 0.02 0.01 0.00 0.00 0.00 0.00 0.00 0.00 0.00 0.01 0.02 0.02 0.01 0.00 0.00
0.00 0.01 0.00 0.00 0.00 0.00 0.01 0.00 0.00 0.01 0.00 0.00 0.00 0.00 0.00 0.00 0.00 0.00 0.00 0.00 0.00 0.00 0.00 0.00 0.02 0.06 0.05 0.02 0.00 0.00 0.00 0.00 0.00 0.04 0.06 0.01 0.00 0.01 0.01 0.00 0.00 0.01 0.01 0.01 0.01 0.00 0.00 0.00 0.00
0.00 0.00 0.00 0.00 0.00 0.00 0.01 0.01 0.00 0.00 0.02 0.01 0.00 0.00 0.00 0.00 0.00 0.00 0.00 0.00 0.00 0.00 0.00 0.00 0.01 0.01 0.01 0.00 0.00 0.00 0.02 0.00 0.02 0.01 0.00 0.00 0.02 0.05 0.01 0.01 0.02 0.03 0.03 0.00 0.00 0.00 0.00 0.00 0.00
0.00 0.00 0.00 0.00 0.00 0.00 0.00 0.01 0.00 0.00 0.01 0.00 0.00 0.00 0.00 0.00 0.00 0.00 0.00 0.00 0.00 0.00 0.00 0.00 0.00 0.00 0.00 0.00 0.00 0.01 0.05 0.01 0.03 0.01 0.00 0.04 0.11 0.02 0.00 0.03 0.05 0.05 0.01 0.00 0.00 0.00 0.00 0.00 0.00
0.00 0.00 0.00 0.00 0.00 0.00 0.00 0.01 0.01 0.00 0.00 0.00 0.00 0.00 0.00 0.00 0.00 0.00 0.00 0.00 0.00 0.00 0.00 0.00 0.00 0.00 0.00 0.00 0.00 0.00 0.01 0.01 0.02 0.02 0.00 0.02 0.04 0.01 0.00 0.01 0.05 0.05 0.01 0.00 0.01 0.04 0.05 0.06 0.03
0.00 0.00 0.00 0.00 0.00 0.00 0.00 0.00 0.00 0.00 0.00 0.00 0.00 0.00 0.00 0.00 0.00 0.00 0.00 0.00 0.00 0.00 0.00 0.00 0.00 0.00 0.00 0.00 0.00 0.01 0.03 0.00 0.05 0.06 0.03 0.03 0.01 0.01 0.00 0.00 0.04 0.02 0.00 0.02 0.02 0.01 0.02 0.02 0.02
0.00 0.00 0.00 0.00 0.00 0.00 0.00 0.00 0.00 0.00 0.00 0.00 0.00 0.00 0.00 0.00 0.00 0.00 0.00 0.00 0.00 0.00 0.00 0.00 0.00 0.00 0.00 0.01 0.00 0.01 0.02 0.01 0.08 0.08 0.05 0.02 0.02 0.00 0.00 0.01 0.04 0.03 0.00 0.00 0.00 0.00 0.00 0.00 0.00
0.00 0.00 0.00 0.00 0.00 0.00 0.00 0.00 0.00 0.00 0.00 0.00 0.00 0.00 0.00 0.00 0.00 0.00 0.00 0.00 0.00 0.00 0.00 0.00 0.00 0.00 0.00 0.00 0.00 0.00 0.02 0.01 0.05 0.06 0.05 0.04 0.02 0.01 0.00 0.03 0.04 0.01 0.00 0.00 0.00 0.00 0.01 0.00 0.00
0.00 0.00 0.00 0.00 0.00 0.00 0.00 0.00 0.00 0.00 0.00 0.00 0.00 0.00 0.00 0.00 0.00 0.00 0.00 0.00 0.00 0.00 0.00 0.00 0.00 0.00 0.00 0.00 0.00 0.00 0.01 0.01 0.04 0.04 0.05 0.00 0.00 0.01 0.00 0.01 0.02 0.00 0.00 0.00 0.00 0.01 0.01 0.00 0.00
0.00 0.00 0.00 0.00 0.00 0.00 0.00 0.00 0.00 0.00 0.00 0.00 0.00 0.00 0.00 0.00 0.00 0.00 0.00 0.00 0.00 0.00 0.00 0.00 0.00 0.00 0.00 0.00 0.00 0.00 0.00 0.00 0.00 0.01 0.02 0.00 0.01 0.02 0.01 0.02 0.07 0.01 0.00 0.00 0.00 0.00 0.00 0.01 0.02
0.00 0.00 0.00 0.00 0.00 0.00 0.00 0.00 0.00 0.00 0.00 0.00 0.00 0.00 0.00 0.00 0.00 0.00 0.00 0.00 0.00 0.00 0.00 0.00 0.00 0.00 0.00 0.00 0.00 0.00 0.00 0.00 0.00 0.02 0.00 0.00 0.01 0.03 0.02 0.01 0.07 0.01 0.01 0.00 0.00 0.00 0.00 0.00 0.00
0.00 0.00 0.00 0.00 0.00 0.00 0.00 0.00 0.00 0.00 0.00 0.00 0.00 0.00 0.00 0.00 0.00 0.00 0.00 0.00 0.00 0.00 0.00 0.00 0.00 0.00 0.00 0.00 0.00 0.00 0.00 0.00 0.00 0.00 0.00 0.00 0.00 0.03 0.13 0.11 0.06 0.07 0.01 0.00 0.00 0.00 0.00 0.00 0.00
0.00 0.00 0.00 0.00 0.00 0.00 0.00 0.00 0.00 0.00 0.00 0.00 0.00 0.00 0.00 0.00 0.00 0.00 0.00 0.00 0.00 0.00 0.00 0.00 0.00 0.00 0.00 0.00 0.00 0.00 0.00 0.00 0.00 0.00 0.00 0.00 0.00 0.00 0.00 0.00 0.02 0.02 0.01 0.00 0.00 0.00 0.00 0.00 0.00
0.00 0.00 0.00 0.00 0.00 0.00 0.00 0.00 0.00 0.00 0.00 0.00 0.00 0.00 0.00 0.00 0.00 0.00 0.00 0.00 0.00 0.00 0.00 0.00 0.00 0.00 0.00 0.00 0.00 0.00 0.00 0.00 0.00 0.01 0.06 0.04 0.00 0.00 0.00 0.00 0.00 0.03 0.00 0.00 0.00 0.00 0.00 0.00 0.00
0.00 0.00 0.00 0.00 0.00 0.00 0.00 0.00 0.00 0.00 0.00 0.00 0.00 0.00 0.00 0.00 0.00 0.00 0.00 0.00 0.00 0.00 0.00 0.00 0.00 0.00 0.00 0.00 0.00 0.00 0.00 0.00 0.00 0.01 0.09 0.11 0.01 0.00 0.00 0.00 0.00 0.00 0.00 0.00 0.00 0.00 0.00 0.00 0.00
0.00 0.00 0.00 0.00 0.00 0.00 0.00 0.00 0.00 0.00 0.00 0.00 0.00 0.00 0.00 0.00 0.00 0.00 0.00 0.00 0.00 0.00 0.01 0.00 0.00 0.00 0.00 0.00 0.00 0.00 0.00 0.00 0.00 0.00 0.00 0.03 0.04 0.00 0.00 0.00 0.00 0.00 0.01 0.06 0.00 0.00 0.00 0.00 0.00
0.00 0.00 0.00 0.00 0.00 0.00 0.00 0.00 0.00 0.00 0.00 0.00 0.00 0.00 0.00 0.00 0.00 0.00 0.00 0.00 0.00 0.00 0.01 0.01 0.00 0.00 0.00 0.00 0.00 0.00 0.00 0.00 0.00 0.00 0.00 0.03 0.10 0.13 0.01 0.07 0.01 0.04 0.02 0.01 0.03 0.02 0.00 0.00 0.00
0.00 0.00 0.00 0.00 0.00 0.00 0.00 0.00 0.00 0.00 0.00 0.00 0.00 0.00 0.00 0.00 0.00 0.00 0.00 0.00 0.00 0.00 0.00 0.01 0.05 0.01 0.00 0.00 0.00 0.00 0.00 0.00 0.00 0.00 0.00 0.00 0.00 0.08 0.04 0.10 0.13 0.12 0.13 0.11 0.04 0.02 0.01 0.00 0.00
0.00 0.00 0.00 0.00 0.00 0.00 0.00 0.00 0.00 0.00 0.00 0.00 0.00 0.00 0.00 0.00 0.00 0.00 0.00 0.00 0.00 0.00 0.00 0.00 0.02 0.01 0.00 0.00 0.00 0.00 0.00 0.00 0.00 0.00 0.00 0.00 0.00 0.00 0.01 0.03 0.10 0.04 0.12 0.12 0.02 0.08 0.02 0.02 0.02
0.00 0.00 0.00 0.00 0.00 0.00 0.00 0.00 0.00 0.00 0.00 0.00 0.00 0.00 0.00 0.00 0.00 0.00 0.00 0.00 0.00 0.00 0.00 0.00 0.00 0.01 0.00 0.00 0.00 0.00 0.00 0.00 0.00 0.00 0.00 0.00 0.00 0.00 0.00 0.00 0.00 0.00 0.00 0.00 0.01 0.10 0.06 0.04 0.07
0.00 0.00 0.00 0.00 0.00 0.00 0.00 0.00 0.00 0.00 0.00 0.00 0.00 0.00 0.00 0.00 0.00 0.00 0.00 0.01 0.01 0.01 0.00 0.00 0.00 0.00 0.01 0.00 0.00 0.00 0.00 0.00 0.00 0.00 0.00 0.00 0.00 0.00 0.00 0.00 0.00 0.00 0.00 0.00 0.00 0.04 0.06 0.03 0.08
0.00 0.00 0.00 0.00 0.00 0.00 0.00 0.00 0.00 0.00 0.00 0.00 0.00 0.00 0.00 0.00 0.00 0.00 0.00 0.01 0.02 0.05 0.05 0.01 0.00 0.00 0.00 0.00 0.00 0.00 0.00 0.00 0.00 0.00 0.00 0.00 0.00 0.00 0.00 0.00 0.00 0.00 0.00 0.00 0.03 0.03 0.08 0.12 0.09
0.00 0.00 0.00 0.00 0.00 0.00 0.00 0.00 0.00 0.00 0.00 0.00 0.00 0.00 0.00 0.00 0.00 0.00 0.00 0.00 0.01 0.02 0.02 0.01 0.00 0.00 0.00 0.00 0.00 0.00 0.00 0.01 0.00 0.00 0.00 0.00 0.00 0.00 0.00 0.00 0.00 0.00 0.00 0.00 0.00 0.03 0.05 0.07 0.06
0.00 0.00 0.00 0.00 0.00 0.00 0.00 0.00 0.00 0.00 0.00 0.00 0.00 0.00 0.00 0.00 0.00 0.00 0.00 0.00 0.00 0.00 0.00 0.02 0.01 0.00 0.00 0.00 0.00 0.00 0.00 0.00 0.00 0.00 0.00 0.00 0.00 0.00 0.00 0.00 0.00 0.00 0.00 0.00 0.00 0.00 0.01 0.08 0.10
0.00 0.00 0.00 0.00 0.00 0.00 0.00 0.00 0.00 0.00 0.00 0.00 0.00 0.00 0.00 0.00 0.00 0.00 0.00 0.00 0.00 0.00 0.00 0.01 0.03 0.00 0.00 0.00 0.00 0.00 0.01 0.00 0.00 0.00 0.00 0.00 0.00 0.00 0.00 0.00 0.01 0.00 0.00 0.00 0.00 0.00 0.03 0.12 0.05
0.00 0.00 0.00 0.00 0.00 0.00 0.00 0.00 0.00 0.00 0.00 0.00 0.00 0.00 0.00 0.00 0.00 0.00 0.00 0.00 0.00 0.00 0.00 0.01 0.02 0.07 0.01 0.00 0.00 0.00 0.01 0.00 0.00 0.00 0.00 0.00 0.00 0.00 0.00 0.00 0.00 0.00 0.00 0.00 0.08 0.03 0.07 0.04 0.06
0.00 0.00 0.00 0.00 0.00 0.00 0.00 0.00 0.00 0.00 0.00 0.00 0.00 0.00 0.00 0.00 0.00 0.00 0.00 0.00 0.00 0.00 0.00 0.02 0.05 0.09 0.03 0.01 0.01 0.01 0.02 0.02 0.02 0.00 0.00 0.00 0.00 0.00 0.00 0.00 0.00 0.00 0.00 0.00 0.05 0.04 0.09 0.09 0.01
0.00 0.00 0.00 0.00 0.00 0.00 0.00 0.00 0.00 0.00 0.00 0.00 0.00 0.00 0.00 0.00 0.00 0.00 0.00 0.00 0.00 0.00 0.00 0.02 0.06 0.06 0.05 0.02 0.02 0.01 0.02 0.02 0.02 0.01 0.00 0.00 0.00 0.00 0.00 0.00 0.01 0.00 0.00 0.00 0.04 0.06 0.14 0.14 0.02
0.00 0.00 0.00 0.00 0.00 0.00 0.00 0.00 0.00 0.00 0.00 0.00 0.00 0.00 0.00 0.00 0.00 0.00 0.00 0.00 0.00 0.00 0.00 0.02 0.03 0.06 0.12 0.08 0.01 0.01 0.03 0.02 0.02 0.02 0.01 0.00 0.00 0.00 0.00 0.01 0.00 0.01 0.01 0.01 0.03 0.03 0.21 0.13 0.01
0.00 0.00 0.00 0.00 0.00 0.00 0.00 0.00 0.00 0.00 0.00 0.00 0.00 0.00 0.00 0.00 0.00 0.00 0.00 0.00 0.00 0.00 0.00 0.01 0.00 0.01 0.21 0.28 0.01 0.02 0.08 0.09 0.06 0.02 0.02 0.01 0.00 0.00 0.00 0.00 0.00 0.02 0.02 0.03 0.03 0.07 0.06 0.10 0.06
MSLP
1010.34 1010.39 1010.73 1010.90 1011.33 1011.14 1011.62 1011.59 1011.01 1010.95 1010.81 1010.51 1010.83 1011.29 1011.97 1012.72 1013.50 1014.71 1014.30 1014.17 1014.32 1015.19 1015.52 1015.97 1016.30 1016.52 1016.77 1016.98 1017.16 1017.22 1017.28 1017.36 1017.50 1017.64 1017.69 1017.79 1017.86 1017.81 1017.84 1017.93 1018.15 1018.14 1018.18 1018.31 1018.44 1018.61 1018.73 1018.82 1019.02
1010.23 1010.48 1010.78 1010.79 1011.37 1011.53 1011.62 1011.12 1010.75 1010.59 1010.46 1010.46 1010.67 1011.17 1011.92 1012.96 1013.45 1014.15 1014.53 1014.55 1014.42 1015.14 1015.69 1016.09 1016.49 1016.81 1017.03 1017.13 1017.30 1017.40 1017.50 1017.57 1017.66 1017.80 1017.94 1017.97 1017.99 1018.03 1018.20 1018.31 1018.36 1018.46 1018.53 1018.66 1018.86 1018.89 1019.01 1019.07 1019.13
1010.21 1010.40 1011.09 1010.79 1011.40 1011.59 1011.24 1010.81 1010.60 1010.43 1010.27 1010.48 1010.93 1011.41 1012.25 1013.24 1013.77 1014.17 1014.28 1014.58 1014.92 1015.57 1015.96 1016.28 1016.56 1016.85 1017.25 1017.37 1017.48 1017.60 1017.69 1017.83 1017.94 1017.98 1018.04 1018.21 1018.28 1018.46 1018.48 1018.60 1018.68 1018.75 1018.84 1019.03 1019.13 1019.32 1019.51 1019.46 1019.59
1010.18 1010.71 1010.83 1010.94 1011.37 1011.25 1010.62 1010.43 1010.38 1010.26 1010.37 1010.58 1011.20 1012.11 1012.73 1013.07 1013.65 1014.06 1014.46 1014.67 1015.35 1016.00 1016.21 1016.35 1016.69 1017.00 1017.25 1017.48 1017.66 1017.75 1017.90 1017.94 1018.04 1018.14 1018.23 1018.33 1018.53 1018.71 1018.84 1019.04 1019.05 1019.10 1019.17 1019.38 1019.64 1019.76 1019.79 1019.83 1019.95
1010.54 1010.72 1011.06 1011.39 1011.06 1010.70 1010.38 1010.14 1010.18 1010.24 1010.22 1010.67 1011.19 1012.68 1013.67 1014.05 1013.87 1014.42 1014.73 1015.12 1015.58 1016.36 1016.44 1016.61 1016.81 1017.09 1017.30 1017.57 1017.74 1017.93 1018.05 1018.22 1018.30 1018.36 1018.49 1018.62 1018.79 1018.95 1019.18 1019.33 1019.42 1019.35 1019.55 1019.75 1019.97 1020.11 1020.15 1020.23 1020.32
1010.57 1010.79 1011.53 1011.62 1011.03 1010.40 1010.20 1009.89 1010.06 1010.21 1010.32 1010.91 1011.69 1012.84 1014.37 1014.61 1014.54 1015.00 1015.24 1015.55 1015.82 1016.41 1016.65 1016.84 1017.02 1017.24 1017.47 1017.68 1017.85 1018.14 1018.34 1018.38 1018.38 1018.54 1018.69 1018.83 1018.97 1019.26 1019.40 1019.56 1019.64 1019.56 1019.87 1020.16 1020.26 1020.33 1020.42 1020.53 1020.54
1010.44 1011.11 1011.71 1011.58 1010.96 1010.36 1009.97 1009.91 1009.77 1009.94 1010.32 1010.88 1011.42 1013.18 1014.66 1015.06 1015.14 1015.40 1015.80 1016.06 1016.26 1016.54 1016.86 1017.15 1017.35 1017.53 1017.70 1017.88 1018.02 1018.31 1018.50 1018.56 1018.63 1018.70 1018.98 1019.06 1019.28 1019.49 1019.71 1019.82 1019.85 1019.91 1020.02 1020.25 1020.42 1020.44 1020.50 1020.60 1020.66
1010.37 1010.99 1011.40 1011.34 1010.74 1009.96 1009.66 1009.61 1009.57 1009.67 1010.34 1010.64 1011.13 1012.78 1014.39 1014.94 1015.28 1015.81 1016.29 1016.68 1016.81 1016.96 1017.12 1017.42 1017.68 1017.88 1018.07 1018.14 1018.25 1018.48 1018.76 1018.62 1018.79 1018.78 1018.97 1019.22 1019.40 1019.68 1019.90 1020.01 1020.09 1020.04 1020.28 1020.49 1020.70 1020.76 1020.76 1020.78 1020.88
1010.04 1010.58 1010.80 1010.54 1010.26 1009.54 1009.35 1009.54 1009.66 1009.61 1010.21 1010.69 1011.30 1012.27 1013.22 1014.62 1015.37 1016.06 1016.67 1017.18 1017.34 1017.42 1017.58 1017.63 1017.89 1018.15 1018.31 1018.46 1018.48 1018.65 1018.73 1018.75 1018.81 1018.95 1019.20 1019.43 1019.79 1019.97 1020.10 1020.18 1020.22 1020.44 1020.63 1020.87 1021.02 1021.12 1021.05 1021.12 1021.16
1010.11 1010.41 1009.90 1009.51 1009.41 1009.34 1009.21 1009.40 1009.62 1009.96 1010.56 1011.21 1012.26 1013.10 1013.92 1014.86 1015.56 1016.10 1016.55 1016.97 1017.41 1017.60 1017.80 1017.90 1018.06 1018.30 1018.51 1018.55 1018.82 1019.02 1019.04 1019.08 1019.21 1019.39 1019.75 1019.98 1020.13 1020.31 1020.37 1020.36 1020.46 1020.68 1020.90 1021.13 1021.31 1021.44 1021.54 1021.74 1021.82
1009.83 1009.67 1008.90 1009.12 1008.89 1008.98 1009.06 1009.34 1009.56 1010.00 1010.78 1010.99 1012.14 1013.40 1014.26 1015.14 1015.79 1016.18 1016.62 1016.97 1017.19 1017.57 1017.92 1018.13 1018.25 1018.44 1018.61 1018.73 1019.08 1019.29 1019.44 1019.41 1019.50 1019.78 1019.96 1020.26 1020.41 1020.54 1020.61 1020.72 1020.83 1021.00 1021.17 1021.45 1021.76 1022.11 1022.22 1022.19 1022.25
1009.41 1008.44 1008.34 1008.36 1008.59 1008.97 1009.01 1009.13 1009.51 1009.76 1010.07 1010.45 1011.67 1012.63 1013.96 1015.03 1015.59 1016.02 1016.33 1016.61 1017.08 1017.60 1017.94 1018.18 1018.33 1018.61 1018.75 1018.91 1019.25 1019.40 1019.63 1019.71 1019.93 1020.02 1020.16 1020.41 1020.67 1020.81 1021.03 1021.08 1021.16 1021.35 1021.64 1021.90 1022.18 1022.37 1022.48 1022.40 1022.35
1008.95 1007.85 1007.82 1007.89 1008.36 1008.77 1008.86 1009.04 1009.34 1009.58 1010.01 1010.70 1012.01 1013.06 1013.87 1014.68 1015.11 1015.60 1016.08 1016.64 1016.98 1017.41 1017.82 1018.14 1018.34 1018.68 1018.83 1019.03 1019.33 1019.54 1019.69 1019.84 1020.14 1020.36 1020.30 1020.51 1020.76 1020.99 1021.24 1021.41 1021.48 1021.69 1021.85 1022.10 1022.38 1022.59 1022.54 1022.50 1022.52
1007.89 1007.85 1007.77 1007.72 1008.11 1008.44 1008.77 1009.11 1009.28 1009.65 1010.37 1011.29 1012.25 1013.26 1013.95 1014.40 1014.78 1015.52 1015.87 1016.23 1016.66 1017.04 1017.43 1017.85 1018.15 1018.44 1018.74 1019.03 1019.30 1019.57 1019.77 1019.83 1020.12 1020.46 1020.57 1020.62 1020.92 1021.09 1021.34 1021.56 1021.66 1021.82 1021.99 1022.21 1022.43 1022.49 1022.52 1022.56 1022.60
1007.81 1007.97 1007.89 1008.15 1008.34 1008.56 1008.67 1009.20 1009.27 1009.69 1010.22 1011.38 1012.44 1013.18 1013.83 1014.02 1014.57 1014.77 1015.05 1015.59 1015.98 1016.44 1017.06 1017.53 1017.84 1018.05 1018.47 1018.83 1019.08 1019.42 1019.70 1019.85 1020.05 1020.32 1020.63 1020.70 1020.91 1021.05 1021.34 1021.60 1021.74 1021.77 1022.00 1022.27 1022.47 1022.58 1022.69 1022.89 1022.93
1008.32 1008.44 1008.78 1008.28 1008.39 1008.56 1008.95 1009.34 1009.23 1009.71 1010.21 1011.25 1012.06 1012.68 1013.31 1013.74 1013.80 1014.21 1014.58 1015.02 1015.60 1016.31 1016.88 1017.37 1017.60 1017.89 1018.13 1018.49 1018.78 1019.06 1019.41 1019.66 1019.88 1020.11 1020.31 1020.46 1020.90 1021.04 1021.29 1021.53 1021.61 1021.69 1021.93 1022.21 1022.43 1022.63 1023.00 1023.21 1023.26
1009.65 1009.59 1009.15 1008.64 1008.57 1008.82 1009.12 1009.07 1009.23 1009.70 1010.33 1010.91 1011.58 1012.21 1012.79 1013.35 1013.57 1013.74 1014.07 1014.52 1015.06 1015.58 1016.28 1016.94 1017.31 1017.65 1018.01 1018.29 1018.69 1018.95 1019.15 1019.35 1019.48 1019.68 1019.99 1020.19 1020.55 1021.02 1021.20 1021.49 1021.49 1021.80 1022.03 1022.26 1022.48 1022.75 1022.92 1023.31 1023.51
1010.51 1010.05 1009.38 1009.01 1008.59 1008.86 1009.19 1008.89 1009.30 1009.60 1010.30 1010.67 1010.74 1011.55 1011.98 1012.08 1012.36 1013.05 1013.59 1014.15 1014.65 1015.38 1015.97 1016.55 1017.04 1017.47 1017.91 1018.12 1018.62 1019.02 1019.18 1019.21 1019.36 1019.36 1019.52 1019.87 1020.22 1020.68 1021.05 1021.31 1021.50 1021.71 1022.13 1022.33 1022.47 1022.58 1022.86 1023.15 1023.44
1010.27 1010.09 1009.76 1008.57 1008.27 1008.74 1009.05 1009.05 1009.02 1009.53 1009.98 1010.32 1010.61 1010.87 1011.07 1010.88 1011.56 1012.36 1013.01 1013.83 1014.57 1015.30 1015.89 1016.49 1016.99 1017.00 1017.46 1018.02 1018.52 1018.88 1018.93 1019.13 1019.28 1019.13 1019.11 1019.41 1019.74 1020.13 1020.55 1020.87 1021.28 1021.47 1021.92 1022.03 1022.26 1022.62 1022.98 1023.14 1023.43
1009.99 1009.67 1009.12 1008.61 1008.50 1008.88 1009.04 1008.84 1008.59 1008.79 1008.44 1008.89 1009.47 1009.95 1009.99 1010.56 1011.43 1012.10 1012.69 1013.18 1013.92 1014.52 1015.08 1015.74 1016.28 1016.77 1017.02 1017.38 1017.73 1018.03 1018.37 1018.63 1018.63 1018.76 1018.89 1018.98 1019.30 1019.64 1020.01 1020.33 1020.63 1020.94 1021.45 1021.79 1022.09 1022.47 1022.98 1023.03 1023.29
1009.54 1009.48 1009.27 1009.05 1008.77 1008.97 1009.18 1009.23 1008.61 1008.27 1008.37 1008.71 1008.89 1008.88 1009.14 1009.44 1010.30 1011.32 1012.00 1012.42 1013.20 1013.67 1014.14 1014.70 1015.18 1015.73 1016.35 1016.92 1017.40 1017.77 1018.04 1018.33 1018.59 1018.67 1018.76 1018.74 1018.91 1019.25 1019.60 1019.92 1020.26 1020.64 1020.97 1021.33 1021.69 1022.01 1022.43 1022.71 1023.23
1009.75 1009.19 1009.39 1009.56 1009.74 1010.10 1010.11 1010.83 1009.26 1008.57 1008.27 1008.26 1007.93 1008.05 1007.82 1008.42 1009.32 1010.24 1011.16 1011.77 1012.08 1012.32 1013.22 1013.79 1014.41 1015.06 1015.62 1016.26 1016.91 1017.11 1017.21 1017.71 1017.76 1017.79 1017.98 1018.27 1018.46 1018.79 1019.19 1019.56 1019.87 1020.21 1020.51 1020.89 1021.06 1021.27 1021.90 1022.36 1022.70
1009.49 1009.48 1010.19 1010.45 1011.00 1011.30 1011.36 1011.45 1009.74 1008.95 1008.51 1007.55 1006.97 1006.93 1006.84 1007.39 1008.21 1008.92 1009.62 1010.35 1010.76 1011.44 1011.98 1012.85 1013.57 1014.37 1015.05 1015.59 1016.20 1016.68 1016.91 1017.05 1017.22 1017.42 1017.66 1017.95 1018.19 1018.38 1018.69 1019.06 1019.42 1019.80 1020.07 1020.32 1020.58 1020.94 1021.40 1021.79 1022.12
1009.43 1010.18 1011.31 1012.17 1012.61 1013.20 1012.48 1012.25 1010.47 1009.49 1008.59 1007.40 1006.20 1005.94 1005.77 1006.38 1007.17 1008.14 1008.87 1009.62 1010.46 1011.32 1012.08 1012.94 1013.43 1013.89 1014.51 1015.15 1015.52 1016.04 1016.45 1016.78 1017.18 1017.33 1017.56 1017.77 1017.95 1018.21 1018.35 1018.61 1018.97 1019.29 1019.59 1019.92 1020.10 1020.32 1020.83 1021.19 1021.57
1010.00 1011.42 1012.98 1014.04 1014.60 1014.40 1013.20 1012.62 1010.19 1008.69 1008.10 1007.57 1006.35 1006.02 1004.94 1005.78 1006.83 1007.42 1008.30 1009.07 1010.15 1010.96 1011.72 1012.46 1013.19 1013.89 1013.85 1014.36 1014.98 1015.17 1015.58 1016.04 1016.41 1016.73 1016.93 1017.33 1017.66 1017.85 1017.91 1018.06 1018.47 1018.78 1018.91 1019.22 1019.58 1020.07 1020.42 1020.71 1021.05
1010.74 1011.99 1013.57 1015.08 1016.15 1015.15 1013.47 1012.23 1009.17 1008.32 1007.89 1007.05 1005.96 1005.53 1005.40 1005.93 1006.68 1007.32 1007.89 1008.75 1009.38 1010.32 1011.03 1011.80 1012.52 1012.75 1013.14 1013.48 1014.01 1014.71 1015.19 1015.55 1015.84 1016.09 1016.37 1016.61 1016.88 1017.08 1017.03 1017.43 1017.66 1017.90 1018.27 1018.60 1019.00 1019.46 1019.76 1020.05 1020.18
1011.08 1012.41 1013.46 1014.91 1016.40 1015.94 1014.13 1011.95 1009.39 1008.29 1008.12 1007.84 1007.28 1006.73 1006.46 1006.52 1006.91 1007.51 1008.25 1008.52 1009.02 1009.70 1010.29 1010.89 1011.40 1011.98 1012.29 1012.97 1013.89 1014.46 1015.06 1015.53 1015.77 1015.60 1015.67 1015.99 1016.34 1016.53 1016.75 1016.96 1017.29 1017.26 1017.55 1017.82 1018.28 1018.84 1019.14 1019.36 1019.48
1010.31 1012.13 1013.62 1015.00 1016.44 1016.30 1014.65 1013.24 1011.57 1009.90 1009.43 1008.99 1008.56 1008.11 1007.99 1007.69 1007.82 1007.97 1008.09 1008.52 1008.74 1009.43 1010.08 1010.61 1010.85 1011.32 1012.95 1013.53 1013.54 1014.01 1014.19 1014.66 1015.34 1015.70 1015.44 1015.42 1015.70 1016.10 1016.45 1016.74 1016.91 1016.99 1017.13 1017.21 1017.76 1018.23 1018.48 1018.55 1018.66
1011.36 1012.53 1014.33 1015.51 1016.60 1016.32 1015.70 1013.30 1011.49 1011.10 1010.26 1009.71 1009.33 1008.79 1008.59 1008.42 1008.45 1008.57 1008.85 1009.01 1009.25 1010.02 1010.43 1011.23 1011.50 1013.09 1013.52 1014.75 1014.44 1013.37 1013.75 1013.90 1014.56 1015.05 1015.14 1015.09 1015.32 1015.57 1015.98 1016.24 1016.47 1016.69 1016.82 1017.01 1017.41 1017.63 1017.88 1017.88 1017.77
1011.24 1012.54 1013.70 1015.27 1016.49 1016.45 1015.28 1012.83 1011.10 1010.87 1010.49 1010.11 1009.82 1009.77 1009.27 1009.13 1009.50 1009.69 1009.71 1010.05 1010.45 1010.94 1011.05 1011.56 1011.73 1012.90 1013.53 1013.50 1014.16 1013.47 1013.97 1013.85 1013.84 1014.13 1014.52 1014.71 1014.88 1015.11 1015.36 1015.68 1016.05 1016.15 1016.33 1016.55 1016.79 1017.01 1017.32 1017.37 1017.25
Thickness
5808 5808 5806 5795 5771 5768 5754 5758 5773 5765 5770 5784 5787 5779 5772 5771 5760 5741 5774 5779 5779 5773 5770 5767 5763 5760 5757 5755 5754 5754 5753 5752 5749 5749 5751 5755 5757 5760 5761 5761 5760 5762 5764 5764 5763 5763 5763 5764 5763
5813 5812 5803 5789 5760 5747 5750 5770 5766 5775 5783 5787 5789 5786 5776 5763 5773 5769 5768 5778 5781 5775 5771 5767 5763 5761 5758 5757 5756 5754 5755 5752 5749 5748 5752 5756 5758 5759 5760 5761 5763 5764 5764 5763 5763 5764 5765 5765 5764
5818 5815 5790 5782 5762 5748 5754 5770 5776 5784 5790 5787 5783 5788 5777 5766 5772 5773 5779 5779 5778 5773 5770 5767 5764 5762 5759 5758 5757 5756 5756 5752 5750 5752 5754 5756 5758 5759 5761 5762 5763 5763 5764 5763 5764 5764 5763 5765 5763
5816 5807 5797 5769 5766 5773 5778 5781 5785 5786 5790 5794 5786 5770 5780 5786 5779 5780 5782 5779 5777 5771 5769 5768 5765 5762 5760 5759 5758 5758 5759 5756 5755 5755 5757 5758 5760 5761 5762 5762 5762 5763 5763 5762 5761 5761 5762 5763 5760
5815 5801 5775 5768 5774 5783 5789 5791 5790 5783 5790 5788 5789 5767 5764 5777 5787 5783 5781 5780 5775 5770 5769 5768 5765 5762 5761 5759 5759 5759 5759 5758 5758 5759 5760 5761 5761 5762 5761 5761 5761 5761 5761 5760 5759 5759 5759 5759 5760
5803 5800 5765 5757 5774 5788 5791 5796 5790 5786 5790 5788 5781 5773 5764 5778 5781 5779 5780 5778 5776 5771 5769 5768 5766 5764 5762 5761 5761 5760 5759 5760 5761 5762 5761 5762 5763 5762 5762 5761 5760 5761 5759 5758 5758 5759 5759 5758 5758
5803 5786 5772 5772 5774 5782 5792 5801 5792 5790 5787 5785 5793 5766 5767 5772 5780 5780 5777 5777 5775 5772 5770 5767 5765 5764 5763 5762 5762 5761 5761 5762 5763 5764 5763 5764 5763 5762 5761 5760 5761 5761 5761 5760 5758 5759 5760 5759 5759
5808 5794 5782 5779 5777 5786 5803 5806 5809 5800 5791 5806 5803 5769 5763 5774 5782 5779 5776 5774 5774 5773 5769 5767 5765 5764 5763 5763 5763 5762 5761 5764 5764 5767 5765 5765 5764 5762 5762 5762 5762 5763 5761 5759 5758 5758 5758 5759 5758
5825 5787 5776 5786 5786 5797 5811 5802 5813 5818 5803 5806 5805 5793 5792 5786 5783 5777 5771 5770 5770 5771 5770 5768 5767 5765 5764 5763 5763 5762 5763 5765 5767 5767 5765 5764 5764 5763 5763 5763 5763 5761 5759 5757 5756 5756 5757 5756 5756
5809 5785 5795 5811 5810 5804 5810 5809 5809 5804 5799 5799 5792 5793 5791 5786 5781 5775 5772 5770 5769 5769 5770 5769 5768 5766 5765 5764 5763 5762 5763 5765 5766 5766 5764 5764 5763 5763 5763 5763 5762 5760 5758 5756 5754 5753 5753 5753 5753
5816 5797 5820 5818 5821 5820 5813 5810 5818 5803 5791 5802 5792 5788 5787 5783 5780 5777 5775 5774 5773 5772 5770 5770 5768 5767 5766 5765 5764 5763 5763 5765 5766 5765 5765 5763 5763 5762 5763 5762 5761 5759 5757 5755 5754 5750 5749 5750 5750
5810 5829 5829 5830 5829 5821 5815 5824 5814 5813 5811 5818 5810 5804 5793 5784 5781 5781 5780 5779 5776 5773 5772 5771 5768 5767 5766 5765 5764 5764 5763 5764 5764 5765 5765 5764 5763 5761 5760 5761 5760 5759 5755 5753 5751 5749 5749 5750 5750
5819 5836 5839 5838 5832 5829 5831 5822 5820 5819 5824 5822 5811 5803 5792 5789 5788 5787 5786 5783 5780 5775 5773 5772 5769 5767 5767 5765 5764 5764 5764 5764 5763 5762 5764 5763 5763 5762 5760 5759 5758 5756 5755 5753 5750 5749 5750 5750 5748
5841 5838 5838 5840 5833 5835 5826 5824 5827 5827 5827 5817 5809 5800 5795 5792 5792 5789 5787 5785 5783 5781 5778 5775 5772 5770 5769 5767 5765 5764 5764 5765 5764 5762 5762 5762 5761 5761 5760 5758 5758 5757 5756 5753 5751 5750 5750 5750 5748
5843 5828 5833 5832 5832 5829 5835 5818 5818 5832 5831 5818 5810 5804 5800 5799 5797 5795 5795 5790 5790 5787 5782 5778 5777 5774 5771 5769 5768 5765 5764 5764 5765 5764 5763 5763 5762 5762 5761 5759 5758 5757 5756 5755 5753 5752 5750 5747 5746
5824 5822 5799 5829 5830 5834 5828 5794 5828 5834 5830 5819 5815 5812 5807 5805 5805 5803 5800 5796 5794 5787 5782 5780 5780 5778 5775 5772 5770 5769 5767 5766 5766 5766 5765 5765 5763 5763 5761 5760 5760 5759 5757 5756 5754 5752 5750 5747 5745
5801 5786 5798 5813 5830 5826 5821 5812 5829 5835 5829 5823 5821 5818 5814 5809 5809 5811 5808 5802 5797 5794 5789 5784 5783 5780 5777 5774 5771 5770 5769 5769 5770 5769 5767 5767 5765 5763 5762 5760 5760 5758 5756 5755 5754 5753 5751 5747 5744
5784 5787 5799 5800 5820 5821 5813 5813 5827 5833 5829 5826 5829 5824 5821 5820 5819 5817 5814 5810 5802 5795 5792 5787 5784 5781 5778 5775 5772 5769 5769 5770 5770 5771 5771 5769 5767 5765 5762 5761 5759 5758 5755 5755 5754 5755 5752 5749 5746
5803 5795 5794 5812 5828 5819 5811 5814 5823 5830 5830 5826 5827 5828 5828 5831 5832 5826 5819 5813 5805 5797 5791 5786 5782 5784 5782 5776 5771 5769 5770 5771 5771 5772 5773 5772 5770 5768 5765 5764 5761 5760 5757 5757 5756 5753 5751 5748 5746
5801 5800 5804 5816 5826 5816 5815 5814 5829 5833 5840 5840 5836 5833 5835 5835 5829 5825 5821 5817 5810 5805 5799 5793 5789 5785 5785 5783 5779 5775 5774 5774 5775 5773 5774 5774 5773 5771 5769 5768 5766 5763 5760 5758 5756 5753 5749 5750 5748
5803 5805 5806 5808 5817 5820 5812 5801 5822 5835 5841 5841 5844 5848 5846 5842 5835 5828 5824 5822 5816 5811 5808 5803 5799 5795 5790 5786 5779 5776 5775 5774 5773 5773 5774 5775 5775 5773 5771 5770 5767 5765 5763 5760 5758 5756 5753 5750 5747
5790 5821 5815 5813 5798 5775 5802 5759 5799 5826 5830 5838 5847 5851 5854 5850 5846 5839 5829 5824 5824 5823 5817 5812 5808 5801 5797 5790 5783 5781 5782 5777 5780 5781 5780 5777 5777 5777 5773 5771 5769 5767 5765 5763 5763 5761 5756 5753 5747
5799 5819 5807 5806 5788 5786 5785 5765 5791 5817 5822 5833 5850 5858 5862 5860 5854 5849 5843 5837 5836 5833 5829 5821 5815 5808 5802 5796 5790 5786 5784 5786 5785 5784 5782 5779 5777 5778 5777 5774 5771 5769 5767 5766 5765 5762 5758 5756 5752
5820 5812 5785 5771 5762 5747 5779 5769 5779 5798 5820 5839 5855 5864 5872 5869 5863 5855 5853 5847 5839 5834 5828 5820 5814 5810 5806 5800 5797 5791 5787 5785 5783 5783 5781 5779 5778 5777 5778 5776 5773 5771 5769 5767 5766 5764 5762 5759 5756
5802 5773 5736 5743 5728 5741 5767 5763 5786 5821 5830 5836 5851 5860 5877 5874 5865 5860 5853 5848 5840 5833 5828 5822 5814 5806 5809 5806 5800 5799 5797 5794 5789 5786 5786 5781 5779 5778 5780 5779 5776 5774 5773 5770 5768 5765 5763 5761 5758
5788 5777 5738 5741 5723 5738 5763 5768 5800 5834 5837 5849 5861 5867 5876 5870 5865 5861 5858 5852 5846 5837 5832 5827 5819 5814 5813 5811 5807 5800 5796 5795 5793 5792 5789 5787 5784 5783 5783 5781 5780 5779 5776 5773 5770 5768 5767 5765 5763
5792 5767 5775 5733 5724 5727 5745 5778 5816 5833 5834 5841 5847 5858 5862 5864 5863 5858 5854 5853 5849 5843 5836 5830 5825 5818 5816 5812 5806 5800 5794 5790 5787 5791 5793 5790 5787 5786 5783 5781 5780 5780 5779 5776 5772 5770 5768 5768 5767
5807 5788 5760 5737 5736 5740 5739 5750 5762 5800 5810 5825 5831 5838 5845 5852 5852 5853 5854 5852 5852 5846 5838 5831 5827 5820 5806 5801 5803 5801 5801 5797 5791 5787 5788 5790 5788 5786 5783 5781 5780 5779 5779 5778 5776 5772 5771 5770 5770
5778 5771 5747 5739 5726 5719 5714 5745 5788 5790 5805 5818 5826 5834 5838 5842 5845 5845 5845 5847 5845 5837 5831 5821 5815 5797 5788 5773 5785 5797 5798 5801 5796 5792 5790 5789 5788 5786 5784 5783 5780 5779 5778 5778 5776 5774 5774 5773 5773
5791 5774 5753 5732 5735 5712 5718 5741 5801 5800 5809 5813 5817 5820 5831 5836 5834 5834 5835 5834 5829 5824 5823 5812 5809 5795 5780 5779 5779 5788 5790 5797 5800 5798 5794 5791 5789 5787 5785 5784 5781 5780 5779 5778 5777 5775 5775 5774 5775